Location: Canazei
(46.4667°N, 11.7667°E)
Time: 04:22:05
(UTC+00:00)

Meteor 2-20 - Pass Details

Date: 21 April 2021
Orbit: 939 x 958 km, 82.5° (Epoch: 10 May)

Event Time Altitude Azimuth Distance (km) Brightness Sun altitude
Exits shadow 02:54:08 - 188° (S) 3,208 6.8 -13.4°
Reaches altitude 10° 02:55:32 10° 188° (S) 2,674 6.4 -13.2°
Maximum altitude 03:01:41 87° 277° (W) 965 4.5 -12.3°
Drops below altitude 10° 03:07:53 10° 9° (N) 2,701 7.4 -11.4°
Sets 03:10:24 0° 10° (N) 3,651 8.1 -11.0°
